Regional Weather Roundup
Issued by NWS

Home | Current Version | Previous Version | Graphics & Text | Print | Product List | Glossary On
Versions: 1 2 3 4 5 6 7 8 9 10 11 12 13 14 15 16 17 18 19 20 21 22 23 24 25 26 27 28 29 30 31 32 33 34 35 36 37 38 39 40 41 42 43 44 45 46 47 48 49 50
000
ASUS44 KMEG 211700
RWRTN
TENNESSEE HOURLY STATE WEATHER ROUNDUP
NATIONAL WEATHER SERVICE MEMPHIS TN
1100 AM CST SAT JAN 21 2017

TNZ002-004-019-021-049-052-054-088>092-211800-
WEST TENNESSEE

CITY           SKY/WX    TMP DP  RH WIND       PRES   REMARKS
MEMPHIS INTL   MOSUNNY   69  52  54 S14       29.68F
NWS MEMPHIS      N/A     69 N/A N/A MISG        N/A
JACKSON        SUNNY     68  51  54 S14G22    29.70R
DYERSBURG      SUNNY     66  52  59 S13G18    29.67F
UNION CITY     SUNNY     66  52  59 S10       29.67S
PARIS          PTSUNNY   59  52  77 S5        29.70R
$$

TNZ008-025-027-028-033-062-065-066-211800-
NORTH MIDDLE TENNESSEE

CITY           SKY/WX    TMP DP  RH WIND       PRES   REMARKS
NASHVILLE      CLOUDY    67  45  45 S8        29.72R
CLARKSVILLE    PTSUNNY   64  53  67 SW10      29.70F
SMYRNA         CLOUDY    64  52  64 SE10      29.72S
CROSSVILLE     LGT RAIN  55  53  93 S8        29.80F
$$

TNZ061-075-076-078-094-096-097-211800-
SOUTH MIDDLE TENNESSEE

CITY           SKY/WX    TMP DP  RH WIND       PRES   REMARKS
TULLAHOMA      SUNNY     55  52  88 SE8       29.71R
WINCHESTER     MOSUNNY   55  52  88 SE18      29.68F
MCMINNVILLE    SUNNY     57  57 100 E7        29.69F
COLUMBIA       PTSUNNY   63  61  94 SW9       29.72R
SHELBYVILLE    SUNNY     61  55  82 SE9       29.70F
$$

TNZ017-018-042-046-047-211800-
NORTHEAST TENNESSEE

CITY           SKY/WX    TMP DP  RH WIND       PRES   REMARKS
TRI CITIES     CLOUDY    52  48  86 CALM      29.84F
$$

TNZ012-013-036-069-073-074-211800-
CENTRAL EAST TENNESSEE

CITY           SKY/WX    TMP DP  RH WIND       PRES   REMARKS
KNOXVILLE      CLOUDY    53  49  86 CALM      29.81F
OAK RIDGE      LGT RAIN  56  51  84 S5        29.83F
GATLINBURG     SUNNY     50  46  87 CALM      29.81F
$$

TNZ083-085-099-211800-
SOUTHEAST TENNESSEE

CITY           SKY/WX    TMP DP  RH WIND       PRES   REMARKS
CHATTANOOGA    HVY RAIN  57  54  89 SE6       29.82F FOG
$$

SKY/WX REPORTED AS FAIR MEANS FEW OR NO CLOUDS BELOW
12 THOUSAND FEET.





USA.gov is the U.S. government's official web portal to all federal, state and local government web resources and services.